Regional Weather Roundup
Issued by NWS

Home | Current Version | Previous Version | Text Only | Print | Product List | Glossary Off
Versions: 1 2 3 4 5 6 7 8 9 10 11 12 13 14 15 16 17 18 19 20 21 22 23 24 25 26 27 28 29 30 31 32 33 34 35 36 37 38 39 40 41 42 43 44 45 46 47 48 49 50

000
ASUS43 KDTX 022310
RWRMI
MICHIGAN HOURLY REGIONAL WEATHER ROUNDUP
NATIONAL WEATHER SERVICE DETROIT/PONTIAC MI
700 PM EDT SUN AUG 02 2015

NOTE: "FAIR" INDICATES FEW OR NO CLOUDS BELOW 12,000 FEET WITH NO
SIGNIFICANT WEATHER AND/OR OBSTRUCTION TO VISIBILITY.

MIZ047>049-052>055-059>063-066>070-074>076-081>083-030000-
SOUTHEAST LOWER MICHIGAN

CITY           SKY/WX    TMP DP  RH WIND       PRES   REMARKS
ADRIAN         SUNNY     87  62  43 SW18G26   29.73F
ALMA           CLOUDY    86  64  46 SW14G24   29.58F
ANN ARBOR      SUNNY     86  63  45 SW16G30   29.70F
BAD AXE        CLOUDY    63  58  85 N20G25    29.63R
DETROIT CITY   SUNNY     89  60  37 SW22G31   29.69S
DETROIT        PTSUNNY   89  62  40 S18G29    29.72S
FLINT          MOSUNNY   88  63  43 SW14G30   29.63F
GROSSE ILE     SUNNY     90  61  37 SW15G26   29.71S
HILLSDALE      SUNNY     87  64  47 SW14G23   29.74F
HOWELL         MOSUNNY   86  62  43 SW14G23   29.66F

CITY           SKY/WX    TMP DP  RH WIND       PRES   REMARKS
JACKSON        SUNNY     86  66  51 SW16G29   29.69F
LAMBERTVILLE   SUNNY     88  60  39 SW13G18   29.75F
LANSING        MOSUNNY   88  62  41 SW23G38   29.64F
LAPEER         NOT AVBL
MASON          MOSUNNY   84  63  49 SW9G22    29.66F
MONROE         SUNNY     88  63  43 SW13G22   29.72F
MT. CLEMENS    PTSUNNY   89  62  40 SW21G35   29.64F
PONTIAC        PTSUNNY   87  62  43 SW18G29   29.66F
PORT HURON     MOSUNNY   86  61  42 SW10G17   29.63F
TRI CITIES     CLOUDY    74  56  53 N23G39    29.64R SQUALL
YPSILANTI      SUNNY     92  62  36 SW20G32   29.71F HX  92
$$
MIZ043>046-050>051-056>058-064>065-071>073-077>080-030000-
SOUTHWEST LOWER MICHIGAN

CITY           SKY/WX    TMP DP  RH WIND       PRES   REMARKS
BATTLE CREEK   SUNNY     89  63  41 SW32G41   29.68F HX  90
BENTON HARBOR  MOSUNNY   88  68  51 SW16G39   29.67F HX  91
BIG RAPIDS     CLOUDY    68  53  58 N10       29.62R
COLDWATER      SUNNY     85  60  43 SW20G28   29.72F
HOLLAND        SUNNY     87  67  51 SW29G44   29.62F HX  90
GRAND RAPIDS   PTSUNNY   88  62  41 SW21G32   29.61F
KALAMAZOO      SUNNY     89  63  41 SW23G32   29.68F HX  90
MARSHALL       SUNNY     88  61  39 SW16G28   29.69F
MUSKEGON       PTSUNNY   81  65  58 SW24G35   29.57F
$$
MIZ016>042-030000-
NORTHERN LOWER MICHIGAN

CITY           SKY/WX    TMP DP  RH WIND       PRES   REMARKS
ALPENA         RAIN      67  64  90 S7        29.63R
BEAVER ISLAND  CLOUDY    65  63  94 W5        29.58R
BELLAIRE       RAIN      63  61  94 S8G16     29.60R
CADILLAC       HVY RAIN  59  58  94 NW5G22    29.65R
CHARLEVOIX     CLOUDY    64  62  91 SW6       29.62R
FRANKFORT      HVY RAIN  62  61  96 NW5       29.61F
GRAYLING       HVY RAIN  61  59  94 NE10      29.59F
HARBOR SPRINGS CLOUDY    64  62  94 CALM      29.57R
HOUGHTON LAKE  TSTM      60  58  92 NE6       29.62F
MANISTEE       CLOUDY    61  55  82 E8        29.58F
OSCODA         RAIN      64  61  92 N12G18    29.68R
PELLSTON       CLOUDY    64  63  96 SW3       29.57R
TRAVERSE CITY  TSTM      60  58  92 S12G18    29.60R
$$
MIZ007>008-015-030000-
EASTERN UPPER MICHIGAN

CITY           SKY/WX    TMP DP  RH WIND       PRES   REMARKS
KINROSS        CLOUDY    64  64 100 CALM      29.55R
MACKINAC ISLAN CLOUDY    65  65  99 NW3       29.55R
NEWBERRY       CLOUDY    67  64  93 W7        29.56R
S. S. MARIE    CLOUDY    67  63  87 SW6       29.52F
$$
MIZ004>006-011>014-085-030000-
CENTRAL UPPER MICHIGAN

CITY           SKY/WX    TMP DP  RH WIND       PRES   REMARKS
MANISTIQUE     CLOUDY    66  63  88 CALM      29.58R
ESCANABA       CLOUDY    68  64  88 SW3       29.59R
MENOMINEE      CLOUDY    64  57  77 W3        29.59S
SAWYER-GWINN   PTSUNNY   66  59  77 NE7       29.61R
$$
MIZ001>003-009>011-084-030000-
WESTERN UPPER MICHIGAN

CITY           SKY/WX    TMP DP  RH WIND       PRES   REMARKS
IRON MOUNTAIN  PTSUNNY   74  59  59 NW12      29.60R
HOUGHTON       SUNNY     69  57  65 W13       29.60R
COPPER HARBOR    N/A     72  59  63 N13       29.57R
IRONWOOD       MOSUNNY   70  59  68 NW6       29.63R
$$

ABBREVIATIONS USED IN REMARKS
   TC - TEMPERATURE IN CELSIUS
  WCI - WIND CHILL INDEX
   HX - HEAT INDEX
  VSB - VISIBILITY




USA.gov is the U.S. government's official web portal to all federal, state and local government web resources and services.